Location: Newark
(52.8300°N, 8.0000°E)
Time: 19:17:40
(UTC+00:00)

STARLINK-1130 (DARKSAT) - Pass Details

Date: 29 January 2020
Orbit: 515 x 517 km, 53.0° (Epoch: 16 February)

Event Time Altitude Azimuth Distance (km) Brightness Sun altitude
Rises 18:00:34 0° 286° (WNW) 2,668 8.4 -17.1°
Reaches altitude 10° 18:02:50 10° 279° (W) 1,785 7.4 -17.4°
Maximum altitude 18:06:39 41° 209° (SSW) 787 4.6 -18.0°
Enters shadow 18:09:09 19° 148° (SSE) 1,316 5.3 -18.4°
